| time (UTC) | temp C | wind direction | speed KPH | gust KPH | rain 1hr cm | rain 24hr cm | rain mn cm | humidity % | barometer mb |
| 20260506033720 | 12 | 242 | 0.0 | 3.2 | 0.00 | 0.00 | 0.00 | 83 | 1004.5 |
| 20260506033208 | 11 | 242 | 0.0 | 3.2 | 0.00 | 0.00 | 0.00 | 85 | 1004.5 |
| 20260506033037 | 11 | 240 | 0.0 | 3.2 | 0.00 | 0.00 | 0.00 | 86 | 1004.1 |
| 20260506032651 | 11 | 240 | 0.0 | 3.2 | 0.00 | 0.00 | 0.00 | 87 | 1004.5 |
| 20260506031605 | 10 | 244 | 0.0 | 0.0 | 0.00 | 0.00 | 0.00 | 86 | 1004.2 |
| 20260506031110 | 10 | 244 | 0.0 | 0.0 | 0.00 | 0.00 | 0.00 | 85 | 1004.6 |
| 20260506030059 | 10 | 244 | 0.0 | 0.0 | 0.00 | 0.00 | 0.00 | 85 | 1004.6 |
| 20260506030021 | 10 | 244 | 0.0 | 0.0 | 0.00 | 0.00 | 0.00 | 85 | 1004.1 |
| 20260506025534 | 10 | 244 | 0.0 | 0.0 | 0.00 | 0.00 | 0.00 | 84 | 1004.6 |
| 20260506025018 | 10 | 244 | 0.0 | 0.0 | 0.00 | 0.00 | 0.00 | 84 | 1004.8 |
| 20260506024533 | 10 | 244 | 0.0 | 0.0 | 0.00 | 0.00 | 0.00 | 84 | 1004.2 |
| 20260506024456 | 10 | 244 | 0.0 | 0.0 | 0.00 | 0.00 | 0.00 | 84 | 1004.8 |
| 20260506023412 | 10 | 244 | 0.0 | 0.0 | 0.00 | 0.00 | 0.00 | 83 | 1004.9 |
| 20260506023037 | 10 | 244 | 0.0 | 0.0 | 0.00 | 0.00 | 0.00 | 83 | 1004.3 |
| 20260506022855 | 10 | 244 | 0.0 | 0.0 | 0.00 | 0.00 | 0.00 | 83 | 1004.8 |
| 20260506022343 | 10 | 244 | 0.0 | 0.0 | 0.00 | 0.00 | 0.00 | 82 | 1004.8 |
| 20260506021832 | 11 | 244 | 0.0 | 0.0 | 0.00 | 0.00 | 0.00 | 82 | 1004.9 |
| 20260506021324 | 11 | 244 | 0.0 | 0.0 | 0.00 | 0.00 | 0.00 | 81 | 1004.8 |
| 20260506020813 | 11 | 244 | 0.0 | 0.0 | 0.00 | 0.00 | 0.00 | 80 | 1004.8 |
| 20260506020301 | 11 | 244 | 0.0 | 0.0 | 0.00 | 0.00 | 0.00 | 79 | 1004.8 |
| 20260506020133 | 11 | 244 | 0.0 | 0.0 | 0.00 | 0.00 | 0.00 | 79 | 1004.2 |
| 20260506015750 | 11 | 244 | 0.0 | 0.0 | 0.00 | 0.00 | 0.00 | 79 | 1004.8 |
| 20260506015238 | 11 | 244 | 0.0 | 1.6 | 0.00 | 0.00 | 0.00 | 80 | 1004.6 |
| 20260506014728 | 11 | 244 | 0.0 | 1.6 | 0.00 | 0.00 | 0.00 | 80 | 1004.8 |
| 20260506014221 | 11 | 244 | 0.0 | 0.0 | 0.00 | 0.00 | 0.00 | 80 | 1004.8 |
| 20260506013037 | 11 | 244 | 0.0 | 3.2 | 0.00 | 0.00 | 0.00 | 80 | 1004.2 |
| 20260506012648 | 11 | 244 | 0.0 | 3.2 | 0.00 | 0.00 | 0.00 | 79 | 1004.6 |
| 20260506012147 | 11 | 241 | 0.0 | 0.0 | 0.00 | 0.00 | 0.00 | 79 | 1004.5 |
| 20260506011529 | 11 | 241 | 0.0 | 0.0 | 0.00 | 0.00 | 0.00 | 78 | 1004.1 |
| 20260506011144 | 11 | 241 | 0.0 | 0.0 | 0.00 | 0.00 | 0.00 | 78 | 1004.5 |
| 20260506010640 | 11 | 241 | 0.0 | 1.6 | 0.00 | 0.00 | 0.00 | 78 | 1004.5 |
| 20260506010017 | 11 | 241 | 0.0 | 0.0 | 0.00 | 0.00 | 0.00 | 77 | 1004.0 |
| 20260506005635 | 12 | 241 | 0.0 | 0.0 | 0.00 | 0.00 | 0.00 | 76 | 1004.5 |
| 20260506004619 | 12 | 241 | 0.0 | 0.0 | 0.00 | 0.00 | 0.00 | 75 | 1004.4 |
| 20260506004559 | 12 | 241 | 0.0 | 0.0 | 0.00 | 0.00 | 0.00 | 75 | 1004.0 |
| 20260506003614 | 12 | 241 | 0.0 | 0.0 | 0.00 | 0.00 | 0.00 | 73 | 1004.3 |
| 20260506003038 | 12 | 241 | 0.0 | 0.0 | 0.00 | 0.00 | 0.00 | 72 | 1004.0 |
| 20260506002551 | 13 | 241 | 0.0 | 0.0 | 0.00 | 0.00 | 0.00 | 71 | 1004.4 |
| 20260506002047 | 13 | 241 | 0.0 | 0.0 | 0.00 | 0.00 | 0.00 | 71 | 1004.5 |
| 20260506001533 | 13 | 241 | 0.0 | 0.0 | 0.00 | 0.00 | 0.00 | 70 | 1004.6 |
| 20260506001510 | 13 | 241 | 0.0 | 0.0 | 0.00 | 0.00 | 0.00 | 70 | 1004.2 |
| 20260506001024 | 13 | 241 | 0.0 | 0.0 | 0.00 | 0.00 | 0.00 | 69 | 1004.6 |
| 20260506000516 | 14 | 241 | 0.0 | 0.0 | 0.00 | 0.00 | 0.00 | 68 | 1004.6 |
| 20260506000044 | 14 | 241 | 0.0 | 1.6 | 0.00 | 0.00 | 0.00 | 66 | 1004.3 |
| 20260506000006 | 14 | 241 | 0.0 | 1.6 | 0.00 | 0.00 | 0.00 | 66 | 1004.8 |
| 20260505235456 | 15 | 241 | 0.0 | 1.6 | 0.00 | 0.00 | 0.00 | 66 | 1004.8 |
| 20260505234946 | 15 | 241 | 0.0 | 0.0 | 0.00 | 0.00 | 0.00 | 65 | 1004.9 |
| 20260505234511 | 15 | 241 | 0.0 | 0.0 | 0.00 | 0.00 | 0.00 | 65 | 1004.4 |
| 20260505234447 | 15 | 241 | 0.0 | 4.8 | 0.00 | 0.00 | 0.00 | 65 | 1004.9 |
| 20260505233920 | 15 | 241 | 0.0 | 4.8 | 0.00 | 0.00 | 0.00 | 66 | 1004.9 |
| 20260505233405 | 14 | 257 | 0.0 | 3.2 | 0.00 | 0.00 | 0.00 | 67 | 1004.8 |
| 20260505233042 | 13 | 257 | 0.0 | 3.2 | 0.00 | 0.00 | 0.00 | 68 | 1004.4 |
| 20260505231850 | 13 | 244 | 0.0 | 0.0 | 0.00 | 0.00 | 0.00 | 69 | 1005.0 |
| 20260505231527 | 13 | 244 | 0.0 | 0.0 | 0.00 | 0.00 | 0.00 | 68 | 1004.5 |
| 20260505231351 | 14 | 244 | 0.0 | 0.0 | 0.00 | 0.00 | 0.00 | 68 | 1005.0 |
| 20260505230827 | 14 | 244 | 0.0 | 3.2 | 0.00 | 0.00 | 0.00 | 66 | 1005.0 |
| 20260505230329 | 15 | 244 | 0.0 | 3.2 | 0.00 | 0.00 | 0.00 | 64 | 1005.1 |
| 20260505230058 | 14 | 207 | 0.0 | 0.0 | 0.00 | 0.00 | 0.00 | 64 | 1004.6 |
| 20260505225819 | 15 | 207 | 0.0 | 0.0 | 0.00 | 0.00 | 0.00 | 63 | 1005.0 |
| 20260505225306 | 15 | 207 | 0.0 | 0.0 | 0.00 | 0.00 | 0.00 | 61 | 1005.1 |
| 20260505224755 | 15 | 207 | 0.0 | 0.0 | 0.00 | 0.00 | 0.00 | 60 | 1005.1 |
| 20260505224526 | 15 | 207 | 0.0 | 0.0 | 0.00 | 0.00 | 0.00 | 60 | 1004.6 |
| 20260505224242 | 16 | 207 | 0.0 | 0.0 | 0.00 | 0.00 | 0.00 | 59 | 1005.1 |
| 20260505223730 | 16 | 207 | 0.0 | 1.6 | 0.00 | 0.00 | 0.00 | 57 | 1005.1 |
| 20260505223056 | 16 | 207 | 0.0 | 1.6 | 0.00 | 0.00 | 0.00 | 56 | 1004.6 |
| 20260505222706 | 17 | 207 | 0.0 | 1.6 | 0.00 | 0.00 | 0.00 | 55 | 1005.1 |
| 20260505222154 | 17 | 207 | 0.0 | 1.6 | 0.00 | 0.00 | 0.00 | 54 | 1005.1 |
| 20260505221642 | 18 | 207 | 0.0 | 8.0 | 0.00 | 0.00 | 0.00 | 53 | 1005.1 |
| 20260505221514 | 17 | 207 | 0.0 | 8.0 | 0.00 | 0.00 | 0.00 | 53 | 1004.7 |
| 20260505221128 | 18 | 208 | 0.0 | 8.0 | 0.00 | 0.00 | 0.00 | 52 | 1005.1 |
| 20260505220629 | 18 | 151 | 1.6 | 4.8 | 0.00 | 0.00 | 0.00 | 51 | 1005.1 |
| 20260505220146 | 18 | 105 | 1.6 | 6.4 | 0.00 | 0.00 | 0.00 | 50 | 1004.6 |
| 20260505220114 | 18 | 105 | 1.6 | 6.4 | 0.00 | 0.00 | 0.00 | 50 | 1005.1 |
| 20260505215617 | 18 | 105 | 1.6 | 6.4 | 0.00 | 0.00 | 0.00 | 50 | 1005.2 |
| 20260505215054 | 19 | 137 | 1.6 | 4.8 | 0.00 | 0.00 | 0.00 | 49 | 1005.2 |
| 20260505214553 | 19 | 187 | 1.6 | 4.8 | 0.00 | 0.00 | 0.00 | 48 | 1005.2 |
| 20260505214516 | 19 | 187 | 0.0 | 4.8 | 0.00 | 0.00 | 0.00 | 48 | 1004.7 |
| 20260505214030 | 20 | 184 | 1.6 | 4.8 | 0.00 | 0.00 | 0.00 | 47 | 1005.2 |
| 20260505213518 | 20 | 182 | 3.2 | 12.9 | 0.00 | 0.00 | 0.00 | 47 | 1005.2 |
| 20260505213043 | 20 | 184 | 4.8 | 12.9 | 0.00 | 0.00 | 0.00 | 47 | 1004.6 |
| 20260505213004 | 20 | 157 | 3.2 | 12.9 | 0.00 | 0.00 | 0.00 | 47 | 1005.1 |
| 20260505212454 | 20 | 179 | 3.2 | 11.3 | 0.00 | 0.00 | 0.00 | 46 | 1005.1 |
| 20260505211940 | 20 | 151 | 3.2 | 11.3 | 0.00 | 0.00 | 0.00 | 46 | 1005.1 |
| 20260505211611 | 20 | 159 | 1.6 | 12.9 | 0.00 | 0.00 | 0.00 | 45 | 1004.7 |
| 20260505211424 | 20 | 215 | 4.8 | 12.9 | 0.00 | 0.00 | 0.00 | 45 | 1005.1 |
| 20260505210911 | 20 | 213 | 8.0 | 24.1 | 0.00 | 0.00 | 0.00 | 45 | 1005.3 |
| 20260505210355 | 20 | 245 | 11.3 | 22.5 | 0.00 | 0.00 | 0.00 | 45 | 1005.3 |
| 20260505210028 | 20 | 259 | 4.8 | 25.7 | 0.00 | 0.00 | 0.00 | 45 | 1004.9 |
| 20260505205846 | 20 | 154 | 11.3 | 25.7 | 0.00 | 0.00 | 0.00 | 45 | 1005.3 |
| 20260505205333 | 20 | 218 | 8.0 | 17.7 | 0.00 | 0.00 | 0.00 | 46 | 1005.4 |
| 20260505204820 | 21 | 209 | 8.0 | 17.7 | 0.00 | 0.00 | 0.00 | 46 | 1005.5 |
| 20260505204553 | 20 | 188 | 8.0 | 17.7 | 0.00 | 0.00 | 0.00 | 47 | 1005.0 |
| 20260505203013 | 20 | 154 | 9.7 | 16.1 | 0.00 | 0.00 | 0.00 | 48 | 1004.9 |
| 20260505201704 | 20 | 170 | 8.0 | 16.1 | 0.00 | 0.00 | 0.00 | 49 | 1005.3 |
| 20260505201536 | 20 | 147 | 4.8 | 17.7 | 0.00 | 0.00 | 0.00 | 49 | 1004.9 |
| 20260505201152 | 20 | 143 | 6.4 | 22.5 | 0.00 | 0.00 | 0.00 | 50 | 1005.3 |
| 20260505200640 | 20 | 169 | 3.2 | 14.5 | 0.00 | 0.00 | 0.00 | 52 | 1005.3 |
| 20260505200127 | 18 | 189 | 0.0 | 14.5 | 0.00 | 0.00 | 0.00 | 53 | 1005.3 |
| 20260505200104 | 18 | 184 | 3.2 | 14.5 | 0.00 | 0.00 | 0.00 | 53 | 1004.9 |
| 20260505195623 | 18 | 152 | 0.0 | 3.2 | 0.00 | 0.00 | 0.00 | 53 | 1005.3 |
| 20260505195111 | 19 | 152 | 0.0 | 3.2 | 0.00 | 0.00 | 0.00 | 52 | 1005.3 |
| 20260505194556 | 20 | 144 | 0.0 | 3.2 | 0.00 | 0.00 | 0.00 | 51 | 1005.2 |
| 20260505194531 | 20 | 144 | 0.0 | 3.2 | 0.00 | 0.00 | 0.00 | 51 | 1004.8 |
| 20260505194045 | 20 | 144 | 0.0 | 3.2 | 0.00 | 0.00 | 0.00 | 50 | 1005.3 |
| 20260505193533 | 21 | 144 | 0.0 | 3.2 | 0.00 | 0.00 | 0.00 | 48 | 1005.2 |
| 20260505193049 | 21 | 144 | 0.0 | 3.2 | 0.00 | 0.00 | 0.00 | 47 | 1004.8 |
| 20260505193014 | 21 | 144 | 0.0 | 3.2 | 0.00 | 0.00 | 0.00 | 47 | 1005.2 |
| 20260505192502 | 21 | 143 | 1.6 | 6.4 | 0.00 | 0.00 | 0.00 | 46 | 1005.2 |
| 20260505191951 | 21 | 143 | 1.6 | 4.8 | 0.00 | 0.00 | 0.00 | 46 | 1005.2 |
| 20260505191515 | 21 | 150 | 0.0 | 4.8 | 0.00 | 0.00 | 0.00 | 46 | 1004.8 |
| 20260505191438 | 21 | 150 | 1.6 | 8.0 | 0.00 | 0.00 | 0.00 | 45 | 1005.2 |
| 20260505190924 | 21 | 149 | 3.2 | 8.0 | 0.00 | 0.00 | 0.00 | 45 | 1005.2 |
| 20260505190410 | 22 | 150 | 3.2 | 12.9 | 0.00 | 0.00 | 0.00 | 44 | 1005.1 |
| 20260505190040 | 21 | 189 | 1.6 | 12.9 | 0.00 | 0.00 | 0.00 | 44 | 1004.7 |
| 20260505185858 | 22 | 123 | 3.2 | 12.9 | 0.00 | 0.00 | 0.00 | 44 | 1005.2 |
| 20260505184848 | 22 | 153 | 3.2 | 9.7 | 0.00 | 0.00 | 0.00 | 44 | 1005.3 |
| 20260505184513 | 22 | 213 | 1.6 | 14.5 | 0.00 | 0.00 | 0.00 | 43 | 1004.8 |
| 20260505184334 | 22 | 184 | 4.8 | 16.1 | 0.00 | 0.00 | 0.00 | 43 | 1005.2 |
| 20260505183820 | 22 | 174 | 4.8 | 16.1 | 0.00 | 0.00 | 0.00 | 43 | 1005.2 |
| 20260505183306 | 22 | 170 | 3.2 | 16.1 | 0.00 | 0.00 | 0.00 | 43 | 1005.1 |
| 20260505183039 | 22 | 186 | 1.6 | 9.7 | 0.00 | 0.00 | 0.00 | 43 | 1004.7 |
| 20260505182751 | 22 | 173 | 3.2 | 12.9 | 0.00 | 0.00 | 0.00 | 42 | 1005.1 |
| 20260505182237 | 23 | 142 | 4.8 | 12.9 | 0.00 | 0.00 | 0.00 | 42 | 1005.2 |
| 20260505181722 | 23 | 158 | 4.8 | 14.5 | 0.00 | 0.00 | 0.00 | 42 | 1005.1 |
| 20260505181659 | 22 | 158 | 1.6 | 12.9 | 0.00 | 0.00 | 0.00 | 42 | 1004.7 |
| 20260505181208 | 23 | 190 | 6.4 | 12.9 | 0.00 | 0.00 | 0.00 | 41 | 1005.0 |
| 20260505180651 | 23 | 142 | 6.4 | 19.3 | 0.00 | 0.00 | 0.00 | 41 | 1005.0 |
| 20260505180140 | 23 | 175 | 4.8 | 17.7 | 0.00 | 0.00 | 0.00 | 40 | 1004.9 |
| 20260505180011 | 23 | 153 | 4.8 | 14.5 | 0.00 | 0.00 | 0.00 | 40 | 1004.6 |
| 20260505175112 | 23 | 209 | 4.8 | 17.7 | 0.00 | 0.00 | 0.00 | 40 | 1005.0 |
| 20260505174556 | 23 | 207 | 4.8 | 17.7 | 0.00 | 0.00 | 0.00 | 39 | 1005.0 |
| 20260505174539 | 23 | 207 | 6.4 | 17.7 | 0.00 | 0.00 | 0.00 | 39 | 1004.6 |
| 20260505174035 | 23 | 190 | 4.8 | 12.9 | 0.00 | 0.00 | 0.00 | 39 | 1005.0 |
| 20260505173523 | 23 | 188 | 4.8 | 9.7 | 0.00 | 0.00 | 0.00 | 38 | 1005.0 |
| 20260505173046 | 23 | 196 | 3.2 | 16.1 | 0.00 | 0.00 | 0.00 | 38 | 1004.6 |
| 20260505173010 | 23 | 222 | 6.4 | 16.1 | 0.00 | 0.00 | 0.00 | 38 | 1005.1 |
| 20260505172457 | 24 | 240 | 8.0 | 16.1 | 0.00 | 0.00 | 0.00 | 37 | 1005.0 |
| 20260505171941 | 24 | 193 | 9.7 | 29.0 | 0.00 | 0.00 | 0.00 | 36 | 1005.0 |
| 20260505171510 | 24 | 251 | 9.7 | 25.7 | 0.00 | 0.00 | 0.00 | 35 | 1004.6 |
| 20260505171427 | 24 | 245 | 9.7 | 29.0 | 0.00 | 0.00 | 0.00 | 35 | 1005.0 |
| 20260505170912 | 25 | 202 | 9.7 | 25.7 | 0.00 | 0.00 | 0.00 | 33 | 1005.0 |
| 20260505170357 | 25 | 227 | 11.3 | 22.5 | 0.00 | 0.00 | 0.00 | 31 | 1004.9 |
| 20260505170024 | 25 | 212 | 9.7 | 30.6 | 0.00 | 0.00 | 0.00 | 30 | 1004.6 |
| 20260505165845 | 25 | 181 | 11.3 | 30.6 | 0.00 | 0.00 | 0.00 | 30 | 1004.9 |
| 20260505164814 | 25 | 202 | 9.7 | 25.7 | 0.00 | 0.00 | 0.00 | 27 | 1004.9 |
| 20260505164603 | 25 | 166 | 9.7 | 25.7 | 0.00 | 0.00 | 0.00 | 26 | 1004.6 |
| 20260505164301 | 25 | 217 | 11.3 | 25.7 | 0.00 | 0.00 | 0.00 | 26 | 1004.9 |
| 20260505163746 | 25 | 234 | 12.9 | 29.0 | 0.00 | 0.00 | 0.00 | 26 | 1005.0 |
| 20260505163234 | 25 | 201 | 11.3 | 29.0 | 0.00 | 0.00 | 0.00 | 25 | 1005.0 |
| 20260505163107 | 25 | 216 | 16.1 | 29.0 | 0.00 | 0.00 | 0.00 | 24 | 1004.6 |
| 20260505162714 | 25 | 202 | 9.7 | 25.7 | 0.00 | 0.00 | 0.00 | 24 | 1004.9 |
| 20260505162202 | 26 | 251 | 9.7 | 25.7 | 0.00 | 0.00 | 0.00 | 24 | 1004.9 |
| 20260505161640 | 26 | 188 | 8.0 | 25.7 | 0.00 | 0.00 | 0.00 | 25 | 1005.0 |
| 20260505161616 | 25 | 207 | 9.7 | 25.7 | 0.00 | 0.00 | 0.00 | 25 | 1004.6 |
| 20260505161120 | 26 | 214 | 8.0 | 24.1 | 0.00 | 0.00 | 0.00 | 27 | 1004.9 |
| 20260505160612 | 26 | 147 | 9.7 | 24.1 | 0.00 | 0.00 | 0.00 | 26 | 1004.9 |
| 20260505153036 | 26 | 202 | 14.5 | 30.6 | 0.00 | 0.00 | 0.00 | 24 | 1004.9 |
| 20260505152450 | 26 | 209 | 14.5 | 37.0 | 0.00 | 0.00 | 0.00 | 23 | 1005.3 |
| 20260505151945 | 26 | 181 | 16.1 | 37.0 | 0.00 | 0.00 | 0.00 | 22 | 1005.3 |
| 20260505151514 | 26 | 177 | 11.3 | 30.6 | 0.00 | 0.00 | 0.00 | 23 | 1004.9 |
| 20260505151433 | 26 | 180 | 16.1 | 30.6 | 0.00 | 0.00 | 0.00 | 23 | 1005.2 |
| 20260505150941 | 26 | 255 | 12.9 | 25.7 | 0.00 | 0.00 | 0.00 | 24 | 1005.3 |
| 20260505150417 | 26 | 191 | 12.9 | 25.7 | 0.00 | 0.00 | 0.00 | 25 | 1005.5 |
| 20260505140227 | 27 | 228 | 16.1 | 37.0 | 0.00 | 0.00 | 0.00 | 20 | 1005.6 |
| 20260505124911 | 26 | 223 | 14.5 | 38.6 | 0.00 | 0.00 | 0.00 | 20 | 1005.9 |
| 20260505124544 | 26 | 242 | 11.3 | 38.6 | 0.00 | 0.00 | 0.00 | 20 | 1005.5 |
| 20260505124400 | 26 | 199 | 11.3 | 38.6 | 0.00 | 0.00 | 0.00 | 20 | 1005.9 |
| 20260505123849 | 26 | 181 | 11.3 | 20.9 | 0.00 | 0.00 | 0.00 | 21 | 1006.0 |
| 20260505123349 | 26 | 214 | 12.9 | 30.6 | 0.00 | 0.00 | 0.00 | 19 | 1006.1 |
| 20260505123016 | 26 | 215 | 11.3 | 30.6 | 0.00 | 0.00 | 0.00 | 19 | 1005.8 |
| 20260505122325 | 27 | 209 | 14.5 | 32.2 | 0.00 | 0.00 | 0.00 | 19 | 1006.2 |
| 20260505121807 | 26 | 238 | 16.1 | 32.2 | 0.00 | 0.00 | 0.00 | 20 | 1006.2 |
| 20260505121536 | 26 | 170 | 14.5 | 32.2 | 0.00 | 0.00 | 0.00 | 19 | 1005.9 |
| 20260505121256 | 26 | 203 | 14.5 | 33.8 | 0.00 | 0.00 | 0.00 | 18 | 1006.3 |
| 20260505120738 | 26 | 233 | 16.1 | 33.8 | 0.00 | 0.00 | 0.00 | 19 | 1006.2 |
| 20260505120114 | 26 | 196 | 12.9 | 33.8 | 0.00 | 0.00 | 0.00 | 18 | 1006.0 |
| 20260505115715 | 26 | 180 | 14.5 | 37.0 | 0.00 | 0.00 | 0.00 | 18 | 1006.4 |
| 20260505115158 | 26 | 142 | 16.1 | 33.8 | 0.00 | 0.00 | 0.00 | 20 | 1006.2 |
| 20260505114644 | 26 | 157 | 16.1 | 35.4 | 0.00 | 0.00 | 0.00 | 21 | 1006.4 |
| 20260505114516 | 26 | 170 | 14.5 | 35.4 | 0.00 | 0.00 | 0.00 | 20 | 1006.0 |
| 20260505114133 | 26 | 212 | 14.5 | 35.4 | 0.00 | 0.00 | 0.00 | 19 | 1006.6 |
| 20260505113621 | 26 | 223 | 16.1 | 35.4 | 0.00 | 0.00 | 0.00 | 20 | 1006.5 |
| 20260505113119 | 26 | 164 | 17.7 | 33.8 | 0.00 | 0.00 | 0.00 | 19 | 1006.7 |
| 20260505113049 | 26 | 163 | 14.5 | 33.8 | 0.00 | 0.00 | 0.00 | 19 | 1006.4 |
| 20260505112550 | 26 | 157 | 16.1 | 33.8 | 0.00 | 0.00 | 0.00 | 21 | 1006.4 |
| 20260505112049 | 26 | 227 | 14.5 | 32.2 | 0.00 | 0.00 | 0.00 | 24 | 1006.5 |
| 20260505111530 | 26 | 165 | 12.9 | 25.7 | 0.00 | 0.00 | 0.00 | 24 | 1006.3 |
| 20260505100632 | 25 | 151 | 12.9 | 24.1 | 0.00 | 0.00 | 0.00 | 26 | 1007.3 |
| 20260505100132 | 25 | 169 | 16.1 | 30.6 | 0.00 | 0.00 | 0.00 | 27 | 1007.3 |
| 20260505100057 | 25 | 169 | 14.5 | 30.6 | 0.00 | 0.00 | 0.00 | 27 | 1007.0 |
| 20260505095612 | 25 | 101 | 12.9 | 30.6 | 0.00 | 0.00 | 0.00 | 26 | 1007.4 |
| 20260505094559 | 25 | 150 | 6.4 | 22.5 | 0.00 | 0.00 | 0.00 | 28 | 1007.1 |
| 20260505094521 | 25 | 247 | 9.7 | 22.5 | 0.00 | 0.00 | 0.00 | 29 | 1007.3 |
| 20260505094007 | 25 | 203 | 11.3 | 27.4 | 0.00 | 0.00 | 0.00 | 28 | 1007.3 |
| 20260505093015 | 25 | 184 | 11.3 | 22.5 | 0.00 | 0.00 | 0.00 | 28 | 1007.2 |
| 20260505092937 | 25 | 125 | 12.9 | 24.1 | 0.00 | 0.00 | 0.00 | 27 | 1007.4 |
| 20260505092423 | 25 | 161 | 14.5 | 24.1 | 0.00 | 0.00 | 0.00 | 28 | 1007.4 |
| 20260505091908 | 25 | 127 | 12.9 | 27.4 | 0.00 | 0.00 | 0.00 | 27 | 1007.5 |
| 20260505091535 | 25 | 122 | 14.5 | 27.4 | 0.00 | 0.00 | 0.00 | 28 | 1007.0 |
| 20260505090328 | 25 | 180 | 11.3 | 27.4 | 0.00 | 0.00 | 0.00 | 29 | 1007.5 |
| 20260505090100 | 25 | 111 | 8.0 | 27.4 | 0.00 | 0.00 | 0.00 | 30 | 1007.2 |
| 20260505085817 | 25 | 148 | 12.9 | 27.4 | 0.00 | 0.00 | 0.00 | 30 | 1007.6 |
| 20260505084520 | 24 | 220 | 14.5 | 27.4 | 0.00 | 0.00 | 0.00 | 31 | 1007.5 |
| 20260505084232 | 24 | 123 | 11.3 | 27.4 | 0.00 | 0.00 | 0.00 | 31 | 1007.7 |
| 20260505083723 | 24 | 93 | 11.3 | 27.4 | 0.00 | 0.00 | 0.00 | 32 | 1007.7 |
| 20260505083227 | 24 | 210 | 12.9 | 25.7 | 0.00 | 0.00 | 0.00 | 32 | 1007.8 |
| 20260505083103 | 23 | 163 | 12.9 | 24.1 | 0.00 | 0.00 | 0.00 | 33 | 1007.5 |
| 20260505082718 | 24 | 202 | 12.9 | 25.7 | 0.00 | 0.00 | 0.00 | 33 | 1007.9 |
| 20260505082205 | 23 | 154 | 11.3 | 27.4 | 0.00 | 0.00 | 0.00 | 34 | 1007.8 |
| 20260505081650 | 23 | 128 | 9.7 | 27.4 | 0.00 | 0.00 | 0.00 | 34 | 1007.9 |
| 20260505081630 | 23 | 165 | 12.9 | 25.7 | 0.00 | 0.00 | 0.00 | 34 | 1007.7 |
| 20260505081148 | 23 | 242 | 9.7 | 19.3 | 0.00 | 0.00 | 0.00 | 36 | 1007.9 |
| 20260505080637 | 23 | 215 | 9.7 | 19.3 | 0.00 | 0.00 | 0.00 | 36 | 1007.9 |
| 20260505080127 | 23 | 196 | 9.7 | 20.9 | 0.00 | 0.00 | 0.00 | 38 | 1008.1 |
| 20260505075620 | 23 | 128 | 9.7 | 20.9 | 0.00 | 0.00 | 0.00 | 37 | 1008.1 |
| 20260505075113 | 23 | 196 | 11.3 | 30.6 | 0.00 | 0.00 | 0.00 | 37 | 1008.2 |
| 20260505074600 | 22 | 136 | 9.7 | 30.6 | 0.00 | 0.00 | 0.00 | 37 | 1008.2 |
| 20260505074533 | 22 | 134 | 14.5 | 25.7 | 0.00 | 0.00 | 0.00 | 37 | 1008.0 |
| 20260505074049 | 22 | 132 | 11.3 | 20.9 | 0.00 | 0.00 | 0.00 | 37 | 1008.2 |
| 20260505073035 | 22 | 109 | 9.7 | 20.9 | 0.00 | 0.00 | 0.00 | 38 | 1008.4 |
| 20260505073012 | 22 | 103 | 11.3 | 20.9 | 0.00 | 0.00 | 0.00 | 38 | 1008.2 |
| 20260505072528 | 22 | 131 | 8.0 | 20.9 | 0.00 | 0.00 | 0.00 | 38 | 1008.4 |
| 20260505072019 | 22 | 161 | 8.0 | 14.5 | 0.00 | 0.00 | 0.00 | 40 | 1008.4 |
| 20260505071551 | 21 | 136 | 8.0 | 17.7 | 0.00 | 0.00 | 0.00 | 40 | 1008.3 |
| 20260505071506 | 21 | 192 | 8.0 | 17.7 | 0.00 | 0.00 | 0.00 | 41 | 1008.5 |
| 20260505070957 | 21 | 113 | 8.0 | 19.3 | 0.00 | 0.00 | 0.00 | 41 | 1008.5 |
| 20260505070452 | 21 | 154 | 8.0 | 19.3 | 0.00 | 0.00 | 0.00 | 41 | 1008.5 |
| 20260505070122 | 21 | 180 | 9.7 | 14.5 | 0.00 | 0.00 | 0.00 | 40 | 1008.4 |
| 20260505065432 | 21 | 192 | 6.4 | 14.5 | 0.00 | 0.00 | 0.00 | 41 | 1008.7 |
| 20260505064924 | 21 | 183 | 4.8 | 11.3 | 0.00 | 0.00 | 0.00 | 43 | 1008.7 |
| 20260505064559 | 20 | 194 | 3.2 | 11.3 | 0.00 | 0.00 | 0.00 | 43 | 1008.6 |
| 20260505064414 | 21 | 188 | 6.4 | 14.5 | 0.00 | 0.00 | 0.00 | 44 | 1008.7 |
| 20260505063359 | 20 | 115 | 8.0 | 14.5 | 0.00 | 0.00 | 0.00 | 44 | 1008.8 |
| 20260505063035 | 20 | 121 | 8.0 | 14.5 | 0.00 | 0.00 | 0.00 | 44 | 1008.6 |
| 20260505062851 | 20 | 108 | 6.4 | 12.9 | 0.00 | 0.00 | 0.00 | 43 | 1008.8 |
| 20260505062353 | 20 | 165 | 6.4 | 14.5 | 0.00 | 0.00 | 0.00 | 45 | 1008.9 |
| 20260505061844 | 20 | 98 | 6.4 | 14.5 | 0.00 | 0.00 | 0.00 | 45 | 1008.9 |
| 20260505061513 | 19 | 119 | 4.8 | 12.9 | 0.00 | 0.00 | 0.00 | 46 | 1008.7 |
| 20260505061335 | 19 | 90 | 4.8 | 12.9 | 0.00 | 0.00 | 0.00 | 45 | 1008.9 |
| 20260505060824 | 19 | 124 | 3.2 | 12.9 | 0.00 | 0.00 | 0.00 | 47 | 1009.0 |
| 20260505060311 | 18 | 102 | 0.0 | 4.8 | 0.00 | 0.00 | 0.00 | 50 | 1009.0 |
| 20260505060041 | 18 | 122 | 0.0 | 3.2 | 0.00 | 0.00 | 0.00 | 51 | 1008.9 |
| 20260505055759 | 18 | 122 | 0.0 | 3.2 | 0.00 | 0.00 | 0.00 | 53 | 1009.1 |
| 20260505055239 | 18 | 123 | 0.0 | 1.6 | 0.00 | 0.00 | 0.00 | 55 | 1009.1 |
| 20260505054559 | 17 | 123 | 0.0 | 3.2 | 0.00 | 0.00 | 0.00 | 53 | 1009.0 |
| 20260505054215 | 17 | 125 | 0.0 | 3.2 | 0.00 | 0.00 | 0.00 | 55 | 1009.1 |
| 20260505053154 | 16 | 126 | 1.6 | 3.2 | 0.00 | 0.00 | 0.00 | 58 | 1009.3 |
| 20260505053034 | 16 | 126 | 0.0 | 3.2 | 0.00 | 0.00 | 0.00 | 58 | 1009.0 |
| 20260505052128 | 15 | 134 | 0.0 | 1.6 | 0.00 | 0.00 | 0.00 | 63 | 1009.4 |
| 20260505051617 | 15 | 134 | 0.0 | 1.6 | 0.00 | 0.00 | 0.00 | 64 | 1009.4 |
| 20260505051551 | 14 | 134 | 0.0 | 1.6 | 0.00 | 0.00 | 0.00 | 64 | 1009.2 |
| 20260505051103 | 14 | 134 | 0.0 | 1.6 | 0.00 | 0.00 | 0.00 | 65 | 1009.4 |
| 20260505050553 | 13 | 134 | 0.0 | 3.2 | 0.00 | 0.00 | 0.00 | 66 | 1009.4 |
| 20260505041546 | 8 | 134 | 0.0 | 0.0 | 0.00 | 0.00 | 0.00 | 87 | 1009.4 |
| 20260505040850 | 8 | 134 | 0.0 | 0.0 | 0.00 | 0.00 | 0.00 | 88 | 1009.6 |
| 20260505040006 | 7 | 134 | 0.0 | 0.0 | 0.00 | 0.00 | 0.00 | 88 | 1009.4 |
| 20260505035824 | 7 | 134 | 0.0 | 0.0 | 0.00 | 0.00 | 0.00 | 88 | 1009.6 |
| 20260505035312 | 7 | 134 | 0.0 | 0.0 | 0.00 | 0.00 | 0.00 | 87 | 1009.6 |
| 20260505034811 | 7 | 134 | 0.0 | 0.0 | 0.00 | 0.00 | 0.00 | 87 | 1009.6 |
| 20260505034541 | 7 | 134 | 0.0 | 0.0 | 0.00 | 0.00 | 0.00 | 87 | 1009.5 |
| 20260505034259 | 7 | 134 | 0.0 | 0.0 | 0.00 | 0.00 | 0.00 | 87 | 1009.7 |